TimeEST,TemperatureF,Dew PointF,Humidity,Sea Level PressureIn,VisibilityMPH,Wind Direction,Wind SpeedMPH,Gust SpeedMPH,PrecipitationIn,Events,Conditions,WindDirDegrees,DateUTC
12:53 AM,57.9,52.0,81,29.79,10.0,WSW,4.6,-,0.00,Rain,Light Rain,250,1999-01-24 05:53:00
1:01 AM,57.2,53.6,88,29.80,10.0,West,4.6,-,0.00,Rain,Light Rain,260,1999-01-24 06:01:00
1:45 AM,55.4,53.6,94,29.82,4.0,SW,4.6,-,0.08,Rain,Light Rain,230,1999-01-24 06:45:00
1:53 AM,55.0,54.0,96,29.81,4.0,SW,4.6,-,0.09,Rain,Light Rain,220,1999-01-24 06:53:00
2:53 AM,54.0,53.1,97,29.83,3.0,Variable,4.6,-,0.19,Rain,Heavy Rain,0,1999-01-24 07:53:00
3:18 AM,53.6,51.8,94,29.87,5.0,West,6.9,-,0.05,Rain,Rain,260,1999-01-24 08:18:00
3:41 AM,53.6,51.8,94,29.88,5.0,WSW,3.5,-,0.09,Rain,Rain,240,1999-01-24 08:41:00
3:53 AM,53.1,52.0,96,29.89,4.0,Variable,5.8,-,0.12,Rain,Rain,0,1999-01-24 08:53:00
4:10 AM,50.0,46.4,87,29.90,7.0,Variable,5.8,17.3,0.05,Rain,Light Rain,0,1999-01-24 09:10:00
4:53 AM,48.9,46.9,93,29.92,10.0,WSW,4.6,-,0.07,Rain,Light Rain,250,1999-01-24 09:53:00
5:24 AM,48.2,46.4,93,29.93,10.0,West,6.9,-,0.00,,Overcast,260,1999-01-24 10:24:00
5:53 AM,48.0,45.0,89,29.94,10.0,WSW,4.6,-,0.00,,Overcast,240,1999-01-24 10:53:00
6:12 AM,48.2,44.6,87,29.94,10.0,Variable,4.6,-,N/A,,Overcast,0,1999-01-24 11:12:00
6:53 AM,46.9,42.1,83,29.97,10.0,West,11.5,-,N/A,,Mostly Cloudy,260,1999-01-24 11:53:00
7:53 AM,46.0,39.0,76,29.99,10.0,WSW,9.2,-,N/A,,Overcast,250,1999-01-24 12:53:00
8:53 AM,44.1,39.0,82,30.00,10.0,NW,9.2,16.1,N/A,,Overcast,310,1999-01-24 13:53:00
9:31 AM,42.8,39.2,87,30.02,10.0,West,8.1,-,N/A,,Overcast,270,1999-01-24 14:31:00
9:39 AM,42.8,37.4,81,30.01,10.0,Variable,6.9,-,N/A,,Overcast,0,1999-01-24 14:39:00
9:53 AM,43.0,37.0,80,30.01,10.0,Variable,6.9,-,N/A,,Overcast,0,1999-01-24 14:53:00
10:53 AM,42.1,37.0,82,30.06,10.0,WNW,8.1,-,N/A,,Overcast,300,1999-01-24 15:53:00
11:18 AM,39.2,35.6,87,30.05,10.0,WNW,9.2,20.7,N/A,,Overcast,290,1999-01-24 16:18:00
11:53 AM,39.9,34.0,79,30.04,10.0,Variable,6.9,17.3,N/A,,Overcast,0,1999-01-24 16:53:00
12:53 PM,39.0,32.0,76,30.04,10.0,WNW,11.5,17.3,N/A,,Overcast,290,1999-01-24 17:53:00
1:53 PM,37.9,30.9,76,30.07,10.0,West,8.1,-,N/A,,Overcast,280,1999-01-24 18:53:00
2:53 PM,37.0,30.9,79,30.05,10.0,WNW,6.9,17.3,N/A,,Overcast,290,1999-01-24 19:53:00
3:53 PM,36.0,28.9,76,30.11,10.0,WNW,9.2,-,N/A,,Overcast,290,1999-01-24 20:53:00
4:53 PM,36.0,28.9,76,30.18,10.0,West,8.1,-,N/A,,Overcast,280,1999-01-24 21:53:00
5:53 PM,35.1,30.0,82,30.20,10.0,West,5.8,-,N/A,,Overcast,260,1999-01-24 22:53:00
6:53 PM,35.1,28.0,76,30.22,10.0,West,8.1,-,N/A,,Overcast,260,1999-01-24 23:53:00
7:53 PM,35.1,27.0,72,30.23,10.0,Variable,5.8,-,N/A,,Overcast,0,1999-01-25 00:53:00
8:53 PM,35.1,27.0,72,30.21,10.0,West,5.8,-,N/A,,Overcast,260,1999-01-25 01:53:00
9:53 PM,35.1,27.0,72,30.23,10.0,West,5.8,-,N/A,,Overcast,260,1999-01-25 02:53:00
10:53 PM,35.1,28.0,76,30.21,10.0,Variable,3.5,-,N/A,,Overcast,0,1999-01-25 03:53:00
11:53 PM,35.1,28.0,76,30.23,10.0,West,5.8,-,N/A,,Overcast,270,1999-01-25 04:53:00